7 * 24
多渠道服务支持
STARLINK-36955(NORAD编号68701)是美国太空探索技术公司(SpaceX)星链(Starlink)低轨卫星互联网星座的组网卫星,属于星链项目第二代分组中的一员。星链项目计划部署约1.2万颗低轨卫星,旨在为全球提供高速宽带互联网接入服务,该卫星运行于近地轨道,作为星座中的“移动基站”,参与构建全球覆盖的卫星通信网络,助力实现偏远地区、海洋等无地面网络区域的互联网接入,支撑星链星座的通信容量与覆盖范围扩展。
美国
(US)
| 数据来源 | 国际轨道数据 |
| 星历时间: | 2026-05-24T12:00:02+0800 1天前 查看轨道信息 |
| 半长轴: | 6815.694km |
| 偏心率: | 0.000089 |
| 轨道倾角: | 53.160° |
| 近地点辐角 | 91.913° |
| 升交点赤经 | 43.932° |
| 平近点角 | 238.359° |
| 近地点: | 436.95km |
| 远地点: | 438.164km |
| 周期: | 93.331分钟 |
| 每日圈数: | 15.428995 |